Wind_Speed
35 35 36 36 36 37 37 37 37 40 40 39 36 37 37 36 35 42 39 42 26 28 30 31 36 35 37 38 39 38 39 39 41 40 38 36 36 35
29 29 30 31 32 34 34 34 34 36 38 37 36 36 36 36 36 36 39 32 35 33 32 35 34 35 35 34 35 35 34 34 35 35 34 35 35 33
31 31 32 33 33 34 34 33 34 31 33 33 34 34 33 32 30 35 33 29 35 32 32 34 32 30 31 30 31 33 34 35 36 36 36 37 37 37
33 33 33 32 32 32 33 32 30 30 31 31 31 32 30 29 29 27 30 36 31 30 28 28 28 29 30 31 32 34 36 38 39 40 41 41 41 41
31 29 29 28 27 27 27 27 28 28 29 28 25 25 23 27 27 27 29 29 28 26 28 29 31 32 34 35 37 38 38 39 40 40 38 36 36 35
26 25 22 22 23 25 25 27 26 23 22 22 23 26 24 23 23 24 25 26 27 29 31 33 33 33 29 27 27 27 28 28 28 27 28 28 27 27
19 18 18 19 21 17 15 13 12 15 16 16 18 20 22 23 25 27 29 30 32 33 32 29 20 20 20 23 24 26 28 29 30 30 30 30 30 29
15 15 14 15 14 12 11 11 11 13 15 18 21 24 27 29 31 33 34 34 32 26 18 17 17 20 21 22 23 25 27 28 28 28 28 27 27 27
13 11 12 10 9 8 9 12 15 18 20 23 27 30 32 34 34 34 32 27 20 13 14 19 17 19 21 24 25 27 29 29 28 27 27 26 26 25
9 8 8 8 10 10 13 16 19 22 24 26 29 31 31 31 29 26 20 14 13 14 13 14 18 18 22 24 25 28 30 30 29 28 28 27 26 25
8 7 7 10 12 14 17 19 22 25 27 28 29 31 30 26 21 14 12 13 15 16 15 14 18 16 19 22 24 28 30 31 31 31 31 30 28 26
7 8 11 12 14 17 19 21 24 26 28 29 30 29 25 19 13 11 13 15 16 18 19 17 19 20 15 18 23 27 31 33 33 33 32 31 29 27
9 10 12 14 16 18 20 22 24 26 27 28 28 25 19 13 12 13 15 16 18 20 22 21 20 22 21 20 15 23 26 29 30 30 31 30 30 30
10 12 14 16 17 19 20 22 23 25 26 26 25 20 15 14 15 15 17 18 20 22 25 26 25 27 27 26 23 20 25 26 30 29 29 28 29 30
11 13 15 17 18 19 20 21 22 23 24 24 22 18 17 18 18 19 20 20 21 25 27 29 30 30 31 30 30 23 28 23 27 28 28 27 27 27
13 14 16 17 18 19 20 21 22 23 23 23 21 20 20 22 22 23 23 23 23 27 30 31 32 34 33 32 31 27 27 30 26 28 28 26 26 26
14 15 16 17 18 18 19 20 22 22 23 23 22 22 24 25 26 27 26 27 26 27 27 33 36 37 36 34 31 29 28 29 30 29 29 27 25 26
14 15 17 18 18 19 20 21 22 23 23 23 24 24 26 27 28 30 32 31 30 30 30 31 33 35 35 32 31 30 29 31 30 29 30 30 26 24
15 16 17 19 20 21 22 23 23 24 24 24 24 26 27 28 30 31 34 35 34 33 31 33 34 37 37 33 26 26 30 31 30 29 31 31 32 29
16 17 18 20 21 22 24 24 25 25 25 26 26 27 28 29 30 32 34 36 36 34 32 33 35 36 36 36 33 20 27 31 32 30 31 32 34 34
17 19 20 22 24 25 25 26 26 27 27 27 28 29 30 31 32 33 35 36 37 37 35 33 34 35 34 34 33 28 22 27 32 34 34 36 37 35
20 21 22 24 26 27 27 28 28 28 29 30 30 31 32 32 33 34 36 37 36 37 36 35 34 34 33 34 33 33 27 23 25 31 34 36 38 40
22 23 25 26 28 29 29 30 29 30 31 32 32 33 33 34 35 35 36 37 37 36 35 35 34 34 33 32 33 33 32 29 30 30 28 29 32 35
Wind_Direction
273 274 275 277 278 279 279 280 282 285 287 286 286 288 287 288 295 291 291 298 287 292 291 279 285 283 281 283 283 284 284 282 280 278 278 275 273 272
274 275 275 276 278 279 280 282 280 282 283 288 284 292 293 293 289 296 295 291 289 292 293 286 287 288 283 283 285 285 283 282 282 280 279 276 275 275
277 278 279 281 282 283 283 284 283 281 284 284 290 289 289 295 289 292 288 291 290 290 289 289 289 289 284 284 285 284 283 283 282 282 281 282 281 279
277 279 281 282 284 286 284 283 284 284 281 285 290 291 284 285 289 302 294 294 290 289 290 290 289 284 283 283 283 285 285 285 284 285 285 285 283 281
278 278 280 282 285 286 285 284 287 282 280 288 291 294 286 294 292 294 289 289 287 285 286 286 285 286 288 289 289 287 290 291 290 290 289 287 285 282
273 274 275 282 290 292 291 290 288 286 291 287 286 296 297 296 295 294 294 291 288 286 286 289 292 293 294 296 297 301 301 300 299 297 295 295 293 290
265 267 279 287 291 295 292 300 301 297 298 302 299 300 300 298 296 294 291 289 289 290 293 291 296 291 293 292 293 292 291 290 291 293 295 296 295 293
262 274 280 285 295 295 299 305 307 308 307 302 301 300 297 295 293 291 290 291 291 294 288 291 291 292 295 297 301 300 298 298 298 298 298 298 295 291
264 273 284 283 287 295 306 309 307 306 305 305 303 300 297 294 294 293 292 292 289 285 290 296 302 303 306 308 309 304 301 301 304 306 305 302 298 294
260 261 267 283 290 300 303 306 306 305 306 307 304 303 301 299 296 292 288 278 278 289 295 298 304 308 307 308 305 302 302 305 308 309 310 308 301 294
241 257 276 281 295 303 305 307 307 309 310 309 308 306 303 298 290 277 266 275 286 295 300 303 301 305 303 304 302 299 300 303 307 309 310 311 307 299
255 271 279 293 299 303 305 307 309 310 312 312 310 305 300 289 269 261 274 285 293 297 301 304 301 304 303 296 295 295 299 302 306 306 307 308 308 306
268 280 293 298 301 304 308 310 312 312 312 312 310 306 294 268 262 273 281 289 294 297 298 299 299 299 300 296 285 286 291 296 300 302 303 305 308 308
282 296 299 302 306 309 311 313 315 317 318 317 314 306 288 275 281 283 289 292 294 294 297 300 302 301 301 300 299 290 291 296 299 301 300 303 306 304
292 298 302 307 310 312 314 316 318 320 321 320 314 303 287 287 288 289 290 291 294 296 298 299 301 301 303 304 303 305 296 294 296 299 299 300 302 302
297 302 305 308 311 314 316 319 320 320 322 320 312 299 288 286 286 286 289 293 296 296 298 299 301 303 304 305 305 308 301 302 301 302 301 300 301 304
298 303 307 310 311 313 317 319 320 321 320 317 309 299 290 287 287 289 290 291 293 293 295 298 302 304 305 306 305 303 302 303 304 305 302 302 303 303
296 303 309 311 313 316 317 318 319 320 319 316 310 303 294 289 288 289 290 291 291 292 293 294 297 297 298 301 303 302 301 298 299 301 301 301 302 308
295 304 309 312 315 317 318 316 317 317 315 315 311 304 296 291 288 287 288 290 290 291 294 297 298 297 299 300 297 298 295 293 297 301 303 304 306 308
297 304 309 314 316 317 316 315 314 314 313 313 310 305 300 295 291 289 288 289 290 291 293 295 296 296 298 297 297 299 295 298 300 303 303 303 304 304
294 300 308 313 316 317 315 314 312 311 311 311 310 307 304 301 298 294 291 291 291 292 292 291 293 295 295 294 295 298 300 298 302 305 306 305 303 302
289 298 304 309 315 317 315 312 311 310 309 309 309 308 306 304 301 296 294 292 290 290 291 291 292 293 294 294 295 297 299 297 295 300 302 303 305 306
287 294 300 306 311 314 315 311 309 308 308 308 308 307 306 305 302 299 297 294 292 291 290 289 291 292 293 293 294 296 300 302 302 297 296 297 298 300
Height
3110 3110 3110 3108 3108 3107 3106 3105 3103 3098 3097 3096 3095 3093 3091 3089 3086 3086 3084 3082 3080 3079 3078 3075 3074 3073 3071 3068 3066 3065 3064 3062 3062 3061 3061 3060 3061 3062
3102 3102 3102 3100 3100 3099 3098 3097 3095 3092 3089 3087 3086 3084 3083 3080 3078 3077 3075 3074 3072 3070 3067 3067 3065 3063 3062 3060 3058 3057 3055 3054 3053 3052 3051 3051 3052 3051
3094 3095 3094 3093 3091 3090 3088 3087 3086 3084 3082 3079 3077 3075 3073 3072 3070 3068 3067 3065 3064 3062 3061 3059 3057 3057 3055 3052 3051 3050 3047 3045 3045 3043 3042 3041 3041 3041
3087 3086 3085 3084 3083 3081 3080 3078 3077 3075 3074 3072 3069 3068 3066 3065 3063 3061 3060 3058 3056 3056 3053 3051 3051 3048 3047 3045 3042 3041 3039 3037 3035 3033 3032 3031 3031 3030
3079 3079 3078 3077 3076 3074 3073 3071 3069 3067 3066 3064 3062 3061 3059 3058 3056 3054 3053 3051 3051 3050 3047 3046 3044 3041 3038 3035 3033 3030 3027 3025 3024 3022 3021 3020 3019 3018
3072 3072 3071 3071 3070 3068 3065 3064 3061 3060 3059 3057 3057 3056 3053 3051 3050 3048 3047 3045 3044 3043 3040 3037 3035 3031 3028 3026 3023 3021 3020 3018 3016 3015 3013 3012 3011 3011
3066 3067 3066 3065 3064 3061 3060 3058 3056 3056 3055 3053 3052 3051 3049 3046 3044 3042 3040 3039 3036 3034 3032 3028 3027 3025 3023 3021 3020 3018 3016 3014 3012 3010 3008 3006 3004 3003
3061 3062 3061 3061 3058 3057 3056 3055 3054 3053 3051 3050 3048 3046 3044 3041 3038 3036 3033 3031 3028 3026 3024 3023 3022 3019 3018 3016 3014 3011 3009 3007 3005 3003 3001 2999 2997 2995
3057 3057 3057 3056 3055 3055 3053 3052 3051 3050 3048 3045 3042 3039 3036 3033 3030 3026 3023 3021 3020 3020 3020 3017 3017 3014 3011 3009 3006 3004 3001 2999 2998 2996 2994 2992 2990 2988
3054 3054 3053 3053 3053 3051 3050 3049 3048 3046 3043 3039 3035 3032 3028 3024 3021 3018 3016 3016 3016 3016 3015 3014 3011 3009 3005 3003 3000 2997 2994 2992 2990 2989 2987 2984 2981 2979
3051 3051 3050 3051 3049 3048 3047 3044 3042 3040 3036 3033 3029 3024 3020 3017 3014 3013 3012 3012 3012 3011 3010 3009 3005 3004 3001 2997 2994 2990 2987 2985 2983 2980 2978 2975 2972 2970
3048 3048 3048 3047 3046 3044 3042 3040 3037 3034 3030 3026 3022 3018 3014 3011 3009 3009 3009 3008 3007 3005 3004 3004 3000 2998 2998 2994 2990 2985 2982 2977 2975 2972 2970 2967 2964 2962
3045 3045 3044 3043 3042 3040 3037 3034 3031 3028 3024 3020 3016 3012 3009 3007 3006 3006 3005 3003 3002 3000 2998 2997 2995 2992 2991 2990 2989 2983 2979 2975 2970 2966 2963 2960 2956 2953
3042 3041 3040 3039 3037 3034 3032 3029 3026 3022 3018 3014 3010 3007 3005 3004 3003 3002 3000 2999 2997 2995 2992 2990 2989 2986 2984 2982 2980 2979 2973 2969 2964 2961 2957 2954 2950 2947
3038 3037 3036 3034 3031 3029 3027 3024 3020 3016 3013 3009 3005 3003 3001 3000 2999 2998 2996 2995 2993 2989 2987 2984 2982 2979 2976 2974 2970 2969 2963 2964 2958 2954 2951 2948 2945 2941
3035 3033 3031 3029 3026 3024 3021 3018 3014 3011 3008 3004 3001 2998 2997 2996 2994 2993 2991 2989 2987 2984 2979 2977 2974 2970 2968 2966 2962 2960 2956 2951 2951 2947 2943 2941 2938 2933
3030 3029 3027 3024 3022 3019 3016 3013 3010 3006 3003 2999 2996 2994 2992 2990 2988 2987 2985 2983 2981 2978 2976 2969 2964 2961 2958 2956 2954 2951 2948 2945 2941 2938 2935 2933 2931 2926
3026 3024 3022 3019 3017 3014 3011 3008 3005 3001 2998 2994 2991 2988 2986 2984 2982 2979 2977 2975 2973 2970 2968 2964 2960 2955 2951 2950 2946 2943 2940 2936 2934 2931 2927 2922 2922 2920
3021 3019 3017 3015 3012 3009 3006 3003 2999 2995 2992 2988 2985 2982 2980 2977 2975 2972 2969 2966 2964 2961 2959 2955 2950 2945 2942 2940 2941 2937 2932 2929 2925 2923 2917 2914 2910 2910
3016 3014 3012 3010 3007 3004 3001 2997 2993 2989 2986 2983 2979 2976 2972 2969 2967 2964 2961 2957 2954 2952 2951 2947 2941 2937 2933 2930 2928 2933 2925 2919 2916 2913 2909 2905 2901 2899
3011 3009 3007 3004 3002 2998 2994 2991 2987 2983 2980 2976 2972 2969 2965 2961 2958 2955 2951 2947 2944 2941 2940 2939 2934 2929 2926 2922 2920 2920 2920 2914 2907 2902 2899 2894 2891 2889
3004 3003 3000 2998 2995 2992 2988 2984 2981 2976 2973 2969 2965 2962 2957 2953 2949 2945 2941 2938 2935 2931 2928 2927 2924 2920 2917 2913 2911 2908 2909 2908 2903 2896 2891 2886 2879 2873
2998 2996 2993 2991 2988 2985 2981 2978 2974 2969 2964 2961 2958 2954 2950 2945 2940 2936 2932 2928 2924 2921 2918 2916 2914 2911 2908 2905 2901 2899 2897 2895 2891 2889 2889 2882 2876 2870